Data supplied by UK-AIR on 30/4/2024
All Data GMT hour ending 
Status: R =Ratified P=Provisional,P*=As supplied
,,Eastbourne,,,,,,,,,,,,,,,,,,,,,,,
Date,time,"PM<sub>10</sub> particulate matter (Hourly measured)",status,unit,"Nitric oxide",status,unit,"Nitrogen dioxide",status,unit,"Nitrogen oxides as nitrogen dioxide",status,unit,"Ozone",status,unit,"PM<sub>2.5</sub> particulate matter (Hourly measured)",status,unit
 
01-01-2024,01:00,18.025,P,ugm-3 (FIDAS),0.54590,P,ugm-3,0.62921,P,ugm-3,1.46625,P,ugm-3,71.71215,P,ugm-3,10.024,P,ugm-3 (Ref.eq)
01-01-2024,02:00,12.875,P,ugm-3 (FIDAS),0.54590,P,ugm-3,0.50171,P,ugm-3,1.33875,P,ugm-3,70.64778,P,ugm-3,7.099,P,ugm-3 (Ref.eq)
01-01-2024,03:00,11.475,P,ugm-3 (FIDAS),0.62989,P,ugm-3,0.61200,P,ugm-3,1.57781,P,ugm-3,70.94714,P,ugm-3,6.439,P,ugm-3 (Ref.eq)
01-01-2024,04:00,10.850,P,ugm-3 (FIDAS),0.53540,P,ugm-3,0.80468,P,ugm-3,1.62563,P,ugm-3,70.14886,P,ugm-3,5.967,P,ugm-3 (Ref.eq)
01-01-2024,05:00,14.300,P,ugm-3 (FIDAS),0.59839,P,ugm-3,0.80373,P,ugm-3,1.72125,P,ugm-3,71.04692,P,ugm-3,7.547,P,ugm-3 (Ref.eq)
01-01-2024,06:00,16.775,P,ugm-3 (FIDAS),0.59839,P,ugm-3,0.80373,P,ugm-3,1.72125,P,ugm-3,71.74542,P,ugm-3,8.844,P,ugm-3 (Ref.eq)
01-01-2024,07:00,19.000,P,ugm-3 (FIDAS),0.47242,P,ugm-3,1.09252,P,ugm-3,1.81688,P,ugm-3,72.19445,P,ugm-3,9.245,P,ugm-3 (Ref.eq)
01-01-2024,08:00,20.025,P,ugm-3 (FIDAS),0.56690,P,ugm-3,1.28233,P,ugm-3,2.15156,P,ugm-3,73.99058,P,ugm-3,9.387,P,ugm-3 (Ref.eq)
01-01-2024,09:00,18.400,P,ugm-3 (FIDAS),0.62989,P,ugm-3,0.75544,P,ugm-3,1.72125,P,ugm-3,74.48950,P,ugm-3,8.844,P,ugm-3 (Ref.eq)
01-01-2024,10:00,16.850,P,ugm-3 (FIDAS),0.53540,P,ugm-3,0.94812,P,ugm-3,1.76906,P,ugm-3,74.78886,P,ugm-3,7.547,P,ugm-3 (Ref.eq)
01-01-2024,11:00,14.875,P,ugm-3 (FIDAS),0.66138,P,ugm-3,2.09371,P,ugm-3,3.10781,P,ugm-3,73.69122,P,ugm-3,6.627,P,ugm-3 (Ref.eq)
01-01-2024,12:00,14.100,P,ugm-3 (FIDAS),0.81885,P,ugm-3,1.42194,P,ugm-3,2.67750,P,ugm-3,74.78886,P,ugm-3,6.627,P,ugm-3 (Ref.eq)
01-01-2024,13:00,17.125,P,ugm-3 (FIDAS),0.81885,P,ugm-3,2.18694,P,ugm-3,3.44250,P,ugm-3,73.39187,P,ugm-3,7.429,P,ugm-3 (Ref.eq)
01-01-2024,14:00,10.725,P,ugm-3 (FIDAS),0.53540,P,ugm-3,2.71718,P,ugm-3,3.53813,P,ugm-3,74.09036,P,ugm-3,4.906,P,ugm-3 (Ref.eq)
01-01-2024,15:00,13.150,P,ugm-3 (FIDAS),0.62989,P,ugm-3,5.24981,P,ugm-3,6.21563,P,ugm-3,70.24864,P,ugm-3,6.156,P,ugm-3 (Ref.eq)
01-01-2024,16:00,10.000,P,ugm-3 (FIDAS),0.59839,P,ugm-3,3.28998,P,ugm-3,4.20750,P,ugm-3,73.24219,P,ugm-3,4.882,P,ugm-3 (Ref.eq)
01-01-2024,17:00,13.225,P,ugm-3 (FIDAS),0.62989,P,ugm-3,3.28950,P,ugm-3,4.25531,P,ugm-3,71.54585,P,ugm-3,6.745,P,ugm-3 (Ref.eq)
01-01-2024,18:00,13.975,P,ugm-3 (FIDAS),0.75586,P,ugm-3,2.23571,P,ugm-3,3.39469,P,ugm-3,72.69337,P,ugm-3,6.486,P,ugm-3 (Ref.eq)
01-01-2024,19:00,12.825,P,ugm-3 (FIDAS),0.40943,P,ugm-3,2.43222,P,ugm-3,3.06000,P,ugm-3,70.49810,P,ugm-3,6.840,P,ugm-3 (Ref.eq)
01-01-2024,20:00,13.025,P,ugm-3 (FIDAS),0.40943,P,ugm-3,1.42816,P,ugm-3,2.05594,P,ugm-3,72.09466,P,ugm-3,6.769,P,ugm-3 (Ref.eq)
01-01-2024,21:00,14.475,P,ugm-3 (FIDAS),0.62989,P,ugm-3,1.23356,P,ugm-3,2.19938,P,ugm-3,72.69337,P,ugm-3,7.453,P,ugm-3 (Ref.eq)
01-01-2024,22:00,10.250,P,ugm-3 (FIDAS),0.59839,P,ugm-3,1.37748,P,ugm-3,2.29500,P,ugm-3,72.34413,P,ugm-3,5.425,P,ugm-3 (Ref.eq)
01-01-2024,23:00,8.925,P,ugm-3 (FIDAS),0.62989,P,ugm-3,1.66388,P,ugm-3,2.62969,P,ugm-3,75.78671,P,ugm-3,4.929,P,ugm-3 (Ref.eq)
01-01-2024,24:00,6.150,P,ugm-3 (FIDAS),0.62989,P,ugm-3,0.94669,P,ugm-3,1.91250,P,ugm-3,79.97768,P,ugm-3,3.373,P,ugm-3 (Ref.eq)
02-01-2024,01:00,4.175,P,ugm-3 (FIDAS),0.58789,P,ugm-3,1.45733,P,ugm-3,2.35875,P,ugm-3,80.16062,P,ugm-3,2.524,P,ugm-3 (Ref.eq)
02-01-2024,02:00,9.100,P,ugm-3 (FIDAS),0.71387,P,ugm-3,1.83791,P,ugm-3,2.93250,P,ugm-3,81.29151,P,ugm-3,5.849,P,ugm-3 (Ref.eq)
02-01-2024,03:00,18.450,P,ugm-3 (FIDAS),0.50391,P,ugm-3,1.52235,P,ugm-3,2.29500,P,ugm-3,83.22069,P,ugm-3,11.038,P,ugm-3 (Ref.eq)
02-01-2024,04:00,22.500,P,ugm-3 (FIDAS),0.53540,P,ugm-3,0.99593,P,ugm-3,1.81688,P,ugm-3,84.61768,P,ugm-3,13.609,P,ugm-3 (Ref.eq)
02-01-2024,05:00,19.225,P,ugm-3 (FIDAS),0.75586,P,ugm-3,1.85321,P,ugm-3,3.01219,P,ugm-3,82.57209,P,ugm-3,11.722,P,ugm-3 (Ref.eq)
02-01-2024,06:00,17.125,P,ugm-3 (FIDAS),0.56690,P,ugm-3,3.14702,P,ugm-3,4.01625,P,ugm-3,79.22929,P,ugm-3,10.330,P,ugm-3 (Ref.eq)
02-01-2024,07:00,6.350,P,ugm-3 (FIDAS),0.47242,P,ugm-3,4.72627,P,ugm-3,5.45063,P,ugm-3,76.58499,P,ugm-3,4.033,P,ugm-3 (Ref.eq)
02-01-2024,08:00,2.775,P,ugm-3 (FIDAS),0.72437,P,ugm-3,3.38369,P,ugm-3,4.49438,P,ugm-3,77.28348,P,ugm-3,1.627,P,ugm-3 (Ref.eq)
02-01-2024,09:00,2.025,P,ugm-3 (FIDAS),0.81885,P,ugm-3,5.43819,P,ugm-3,6.69375,P,ugm-3,72.59359,P,ugm-3,1.085,P,ugm-3 (Ref.eq)
02-01-2024,10:00,7.550,P,ugm-3 (FIDAS),0.75586,P,ugm-3,2.28353,P,ugm-3,3.44250,P,ugm-3,77.43316,P,ugm-3,4.104,P,ugm-3 (Ref.eq)
02-01-2024,11:00,9.425,P,ugm-3 (FIDAS),0.62989,P,ugm-3,2.28544,P,ugm-3,3.25125,P,ugm-3,77.53295,P,ugm-3,5.189,P,ugm-3 (Ref.eq)
02-01-2024,12:00,6.325,P,ugm-3 (FIDAS),0.75586,P,ugm-3,2.47478,P,ugm-3,3.63375,P,ugm-3,77.28348,P,ugm-3,3.443,P,ugm-3 (Ref.eq)
02-01-2024,13:00,6.425,P,ugm-3 (FIDAS),0.62989,P,ugm-3,2.38106,P,ugm-3,3.34688,P,ugm-3,76.58499,P,ugm-3,3.679,P,ugm-3 (Ref.eq)
02-01-2024,14:00,10.025,P,ugm-3 (FIDAS),0.66138,P,ugm-3,2.04590,P,ugm-3,3.06000,P,ugm-3,76.93424,P,ugm-3,5.613,P,ugm-3 (Ref.eq)
02-01-2024,15:00,22.675,P,ugm-3 (FIDAS),0.62989,P,ugm-3,1.75950,P,ugm-3,2.72531,P,ugm-3,83.86929,P,ugm-3,12.123,P,ugm-3 (Ref.eq)
02-01-2024,16:00,23.250,P,ugm-3 (FIDAS),0.40943,P,ugm-3,1.33253,P,ugm-3,1.96031,P,ugm-3,86.26413,P,ugm-3,11.675,P,ugm-3 (Ref.eq)
02-01-2024,17:00,18.825,P,ugm-3 (FIDAS),0.66138,P,ugm-3,0.85058,P,ugm-3,1.86469,P,ugm-3,86.66327,P,ugm-3,10.000,P,ugm-3 (Ref.eq)
02-01-2024,18:00,18.000,P,ugm-3 (FIDAS),0.56690,P,ugm-3,0.85202,P,ugm-3,1.72125,P,ugm-3,85.71532,P,ugm-3,10.047,P,ugm-3 (Ref.eq)
02-01-2024,19:00,23.500,P,ugm-3 (FIDAS),0.50391,P,ugm-3,0.94860,P,ugm-3,1.72125,P,ugm-3,83.81940,P,ugm-3,13.443,P,ugm-3 (Ref.eq)
02-01-2024,20:00,24.025,P,ugm-3 (FIDAS),0.59839,P,ugm-3,1.13842,P,ugm-3,2.05594,P,ugm-3,80.27703,P,ugm-3,13.443,P,ugm-3 (Ref.eq)
02-01-2024,21:00,24.350,P,ugm-3 (FIDAS),0.59839,P,ugm-3,0.70810,P,ugm-3,1.62563,P,ugm-3,80.42671,P,ugm-3,13.609,P,ugm-3 (Ref.eq)
02-01-2024,22:00,25.650,P,ugm-3 (FIDAS),0.59839,P,ugm-3,0.70810,P,ugm-3,1.62563,P,ugm-3,79.92779,P,ugm-3,14.175,P,ugm-3 (Ref.eq)
02-01-2024,23:00,22.800,P,ugm-3 (FIDAS),0.47242,P,ugm-3,1.04470,P,ugm-3,1.76906,P,ugm-3,80.57639,P,ugm-3,13.066,P,ugm-3 (Ref.eq)
02-01-2024,24:00,24.650,P,ugm-3 (FIDAS),0.53540,P,ugm-3,1.04375,P,ugm-3,1.86469,P,ugm-3,80.92564,P,ugm-3,13.797,P,ugm-3 (Ref.eq)
03-01-2024,01:00,24.050,P,ugm-3 (FIDAS),0.67188,P,ugm-3,1.39230,P,ugm-3,2.42250,P,ugm-3,80.09409,P,ugm-3,13.113,P,ugm-3 (Ref.eq)
03-01-2024,02:00,16.200,P,ugm-3 (FIDAS),0.37793,P,ugm-3,0.88676,P,ugm-3,1.46625,P,ugm-3,84.15202,P,ugm-3,8.750,P,ugm-3 (Ref.eq)
03-01-2024,03:00,10.850,P,ugm-3 (FIDAS),0.72437,P,ugm-3,0.61057,P,ugm-3,1.72125,P,ugm-3,83.96908,P,ugm-3,5.991,P,ugm-3 (Ref.eq)
03-01-2024,04:00,15.025,P,ugm-3 (FIDAS),0.62989,P,ugm-3,1.13794,P,ugm-3,2.10375,P,ugm-3,83.22069,P,ugm-3,7.382,P,ugm-3 (Ref.eq)
03-01-2024,05:00,16.975,P,ugm-3 (FIDAS),0.53540,P,ugm-3,0.42218,P,ugm-3,1.24313,P,ugm-3,83.27058,P,ugm-3,8.514,P,ugm-3 (Ref.eq)
03-01-2024,06:00,20.925,P,ugm-3 (FIDAS),0.66138,P,ugm-3,1.37652,P,ugm-3,2.39063,P,ugm-3,79.32908,P,ugm-3,11.344,P,ugm-3 (Ref.eq)
03-01-2024,07:00,26.250,P,ugm-3 (FIDAS),0.40943,P,ugm-3,1.14128,P,ugm-3,1.76906,P,ugm-3,78.68047,P,ugm-3,13.750,P,ugm-3 (Ref.eq)
03-01-2024,08:00,26.150,P,ugm-3 (FIDAS),0.72437,P,ugm-3,2.23619,P,ugm-3,3.34688,P,ugm-3,76.98413,P,ugm-3,14.552,P,ugm-3 (Ref.eq)
03-01-2024,09:00,23.625,P,ugm-3 (FIDAS),0.59839,P,ugm-3,2.42935,P,ugm-3,3.34688,P,ugm-3,76.83445,P,ugm-3,12.618,P,ugm-3 (Ref.eq)
03-01-2024,10:00,22.025,P,ugm-3 (FIDAS),0.69288,P,ugm-3,3.00167,P,ugm-3,4.06406,P,ugm-3,73.14241,P,ugm-3,12.359,P,ugm-3 (Ref.eq)
03-01-2024,11:00,16.000,P,ugm-3 (FIDAS),0.75586,P,ugm-3,1.66196,P,ugm-3,2.82094,P,ugm-3,78.23144,P,ugm-3,8.396,P,ugm-3 (Ref.eq)
03-01-2024,12:00,19.825,P,ugm-3 (FIDAS),0.62989,P,ugm-3,3.09825,P,ugm-3,4.06406,P,ugm-3,75.43746,P,ugm-3,10.755,P,ugm-3 (Ref.eq)
03-01-2024,13:00,19.825,P,ugm-3 (FIDAS),0.81885,P,ugm-3,3.09538,P,ugm-3,4.35094,P,ugm-3,76.28563,P,ugm-3,10.566,P,ugm-3 (Ref.eq)
03-01-2024,14:00,14.475,P,ugm-3 (FIDAS),1.00782,P,ugm-3,2.18408,P,ugm-3,3.72938,P,ugm-3,78.97983,P,ugm-3,7.500,P,ugm-3 (Ref.eq)
03-01-2024,15:00,15.600,P,ugm-3 (FIDAS),0.81885,P,ugm-3,2.33038,P,ugm-3,3.58594,P,ugm-3,75.58714,P,ugm-3,8.609,P,ugm-3 (Ref.eq)
03-01-2024,16:00,10.500,P,ugm-3 (FIDAS),0.62989,P,ugm-3,2.81138,P,ugm-3,3.77719,P,ugm-3,72.99273,P,ugm-3,5.731,P,ugm-3 (Ref.eq)
03-01-2024,17:00,13.575,P,ugm-3 (FIDAS),0.88184,P,ugm-3,3.47693,P,ugm-3,4.82906,P,ugm-3,70.19875,P,ugm-3,7.571,P,ugm-3 (Ref.eq)
03-01-2024,18:00,15.125,P,ugm-3 (FIDAS),0.66138,P,ugm-3,3.19340,P,ugm-3,4.20750,P,ugm-3,70.59789,P,ugm-3,7.972,P,ugm-3 (Ref.eq)
03-01-2024,19:00,12.400,P,ugm-3 (FIDAS),0.53540,P,ugm-3,2.86062,P,ugm-3,3.68156,P,ugm-3,70.19875,P,ugm-3,6.344,P,ugm-3 (Ref.eq)
03-01-2024,20:00,8.650,P,ugm-3 (FIDAS),0.66138,P,ugm-3,3.38465,P,ugm-3,4.39875,P,ugm-3,67.85380,P,ugm-3,4.410,P,ugm-3 (Ref.eq)
03-01-2024,21:00,9.575,P,ugm-3 (FIDAS),0.66138,P,ugm-3,6.39683,P,ugm-3,7.41094,P,ugm-3,62.11616,P,ugm-3,4.599,P,ugm-3 (Ref.eq)
03-01-2024,22:00,10.125,P,ugm-3 (FIDAS),0.81885,P,ugm-3,7.25507,P,ugm-3,8.51063,P,ugm-3,58.52390,P,ugm-3,4.788,P,ugm-3 (Ref.eq)
03-01-2024,23:00,9.975,P,ugm-3 (FIDAS),0.72437,P,ugm-3,5.63088,P,ugm-3,6.74156,P,ugm-3,60.07057,P,ugm-3,4.623,P,ugm-3 (Ref.eq)
03-01-2024,24:00,8.125,P,ugm-3 (FIDAS),0.53540,P,ugm-3,4.00812,P,ugm-3,4.82906,P,ugm-3,58.82326,P,ugm-3,3.939,P,ugm-3 (Ref.eq)
04-01-2024,01:00,10.750,P,ugm-3 (FIDAS),0.50391,P,ugm-3,2.79735,P,ugm-3,3.57000,P,ugm-3,56.27874,P,ugm-3,4.764,P,ugm-3 (Ref.eq)
04-01-2024,02:00,12.625,P,ugm-3 (FIDAS),0.46192,P,ugm-3,3.18049,P,ugm-3,3.88875,P,ugm-3,67.92032,P,ugm-3,6.156,P,ugm-3 (Ref.eq)
04-01-2024,03:00,18.775,P,ugm-3 (FIDAS),0.53540,P,ugm-3,3.00406,P,ugm-3,3.82500,P,ugm-3,68.35273,P,ugm-3,8.844,P,ugm-3 (Ref.eq)
04-01-2024,04:00,21.125,P,ugm-3 (FIDAS),0.50391,P,ugm-3,2.09610,P,ugm-3,2.86875,P,ugm-3,72.64348,P,ugm-3,9.811,P,ugm-3 (Ref.eq)
04-01-2024,05:00,15.875,P,ugm-3 (FIDAS),0.47242,P,ugm-3,1.33158,P,ugm-3,2.05594,P,ugm-3,73.84090,P,ugm-3,8.090,P,ugm-3 (Ref.eq)
04-01-2024,06:00,14.875,P,ugm-3 (FIDAS),0.72437,P,ugm-3,2.52307,P,ugm-3,3.63375,P,ugm-3,71.19660,P,ugm-3,7.453,P,ugm-3 (Ref.eq)
04-01-2024,07:00,15.150,P,ugm-3 (FIDAS),0.85035,P,ugm-3,2.28209,P,ugm-3,3.58594,P,ugm-3,66.55660,P,ugm-3,7.146,P,ugm-3 (Ref.eq)
04-01-2024,08:00,15.800,P,ugm-3 (FIDAS),0.69288,P,ugm-3,2.33229,P,ugm-3,3.39469,P,ugm-3,69.30068,P,ugm-3,7.264,P,ugm-3 (Ref.eq)
04-01-2024,09:00,17.000,P,ugm-3 (FIDAS),0.66138,P,ugm-3,4.19746,P,ugm-3,5.21156,P,ugm-3,70.84735,P,ugm-3,7.712,P,ugm-3 (Ref.eq)
04-01-2024,10:00,21.900,P,ugm-3 (FIDAS),1.03931,P,ugm-3,5.86516,P,ugm-3,7.45875,P,ugm-3,68.55230,P,ugm-3,8.797,P,ugm-3 (Ref.eq)
04-01-2024,11:00,21.225,P,ugm-3 (FIDAS),1.95265,P,ugm-3,11.11067,P,ugm-3,14.10469,P,ugm-3,62.51530,P,ugm-3,8.774,P,ugm-3 (Ref.eq)
04-01-2024,12:00,17.900,P,ugm-3 (FIDAS),1.00782,P,ugm-3,4.71814,P,ugm-3,6.26344,P,ugm-3,72.09466,P,ugm-3,7.193,P,ugm-3 (Ref.eq)
04-01-2024,13:00,14.225,P,ugm-3 (FIDAS),1.38575,P,ugm-3,9.87615,P,ugm-3,12.00094,P,ugm-3,67.15531,P,ugm-3,6.533,P,ugm-3 (Ref.eq)
04-01-2024,14:00,11.375,P,ugm-3 (FIDAS),1.00782,P,ugm-3,9.06908,P,ugm-3,10.61438,P,ugm-3,63.76262,P,ugm-3,6.958,P,ugm-3 (Ref.eq)
04-01-2024,15:00,11.650,P,ugm-3 (FIDAS),1.73219,P,ugm-3,12.40495,P,ugm-3,15.06094,P,ugm-3,57.52605,P,ugm-3,7.406,P,ugm-3 (Ref.eq)
04-01-2024,16:00,14.125,P,ugm-3 (FIDAS),1.63771,P,ugm-3,14.70139,P,ugm-3,17.21250,P,ugm-3,55.23100,P,ugm-3,8.420,P,ugm-3 (Ref.eq)
04-01-2024,17:00,20.125,P,ugm-3 (FIDAS),1.25977,P,ugm-3,10.06931,P,ugm-3,12.00094,P,ugm-3,61.06842,P,ugm-3,11.297,P,ugm-3 (Ref.eq)
04-01-2024,18:00,17.325,P,ugm-3 (FIDAS),0.81885,P,ugm-3,6.25101,P,ugm-3,7.50656,P,ugm-3,65.25939,P,ugm-3,9.929,P,ugm-3 (Ref.eq)
04-01-2024,19:00,15.875,P,ugm-3 (FIDAS),0.81885,P,ugm-3,4.38632,P,ugm-3,5.64188,P,ugm-3,66.10756,P,ugm-3,8.868,P,ugm-3 (Ref.eq)
04-01-2024,20:00,11.050,P,ugm-3 (FIDAS),0.81885,P,ugm-3,3.76476,P,ugm-3,5.02031,P,ugm-3,74.04047,P,ugm-3,5.684,P,ugm-3 (Ref.eq)
04-01-2024,21:00,9.425,P,ugm-3 (FIDAS),0.62989,P,ugm-3,2.28544,P,ugm-3,3.25125,P,ugm-3,80.67617,P,ugm-3,4.811,P,ugm-3 (Ref.eq)
04-01-2024,22:00,10.500,P,ugm-3 (FIDAS),0.69288,P,ugm-3,2.61917,P,ugm-3,3.68156,P,ugm-3,79.17940,P,ugm-3,5.047,P,ugm-3 (Ref.eq)
04-01-2024,23:00,9.075,P,ugm-3 (FIDAS),0.59839,P,ugm-3,1.80779,P,ugm-3,2.72531,P,ugm-3,76.63488,P,ugm-3,4.528,P,ugm-3 (Ref.eq)
04-01-2024,24:00,6.950,P,ugm-3 (FIDAS),0.50391,P,ugm-3,3.00454,P,ugm-3,3.77719,P,ugm-3,70.74757,P,ugm-3,3.892,P,ugm-3 (Ref.eq)
05-01-2024,01:00,7.925,P,ugm-3 (FIDAS),0.72094,P,ugm-3,3.01538,P,ugm-3,4.12080,P,ugm-3,,,,4.292,P,ugm-3 (Ref.eq)
05-01-2024,02:00,1.400,P,ugm-3 (FIDAS),0.76335,P,ugm-3,3.27229,P,ugm-3,4.44274,P,ugm-3,66.12419,P,ugm-3,1.014,P,ugm-3 (Ref.eq)
05-01-2024,03:00,0.675,P,ugm-3 (FIDAS),0.34987,P,ugm-3,1.63662,P,ugm-3,2.17308,P,ugm-3,71.89509,P,ugm-3,0.472,P,ugm-3 (Ref.eq)
05-01-2024,04:00,1.300,P,ugm-3 (FIDAS),0.41348,P,ugm-3,1.15276,P,ugm-3,1.78675,P,ugm-3,74.19015,P,ugm-3,0.920,P,ugm-3 (Ref.eq)
05-01-2024,05:00,6.000,P,ugm-3 (FIDAS),0.41348,P,ugm-3,5.83695,P,ugm-3,6.47094,P,ugm-3,57.72562,P,ugm-3,4.882,P,ugm-3 (Ref.eq)
05-01-2024,06:00,8.800,P,ugm-3 (FIDAS),0.57251,P,ugm-3,4.53071,P,ugm-3,5.40855,P,ugm-3,56.12906,P,ugm-3,6.344,P,ugm-3 (Ref.eq)
05-01-2024,07:00,9.325,P,ugm-3 (FIDAS),0.63612,P,ugm-3,4.52976,P,ugm-3,5.50513,P,ugm-3,52.93594,P,ugm-3,6.840,P,ugm-3 (Ref.eq)
05-01-2024,08:00,8.450,P,ugm-3 (FIDAS),0.73154,P,ugm-3,5.34926,P,ugm-3,6.47094,P,ugm-3,50.54110,P,ugm-3,6.038,P,ugm-3 (Ref.eq)
05-01-2024,09:00,6.050,P,ugm-3 (FIDAS),0.76335,P,ugm-3,5.83169,P,ugm-3,7.00214,P,ugm-3,52.38713,P,ugm-3,4.151,P,ugm-3 (Ref.eq)
05-01-2024,10:00,5.800,P,ugm-3 (FIDAS),0.98599,P,ugm-3,5.39373,P,ugm-3,6.90556,P,ugm-3,53.28519,P,ugm-3,3.396,P,ugm-3 (Ref.eq)
05-01-2024,11:00,4.825,P,ugm-3 (FIDAS),1.69633,P,ugm-3,7.57222,P,ugm-3,10.17322,P,ugm-3,50.84046,P,ugm-3,3.019,P,ugm-3 (Ref.eq)
05-01-2024,12:00,4.575,P,ugm-3 (FIDAS),,,,,,,,,,45.30239,P,ugm-3,2.995,P,ugm-3 (Ref.eq)
05-01-2024,13:00,5.625,P,ugm-3 (FIDAS),1.84476,P,ugm-3,7.07099,P,ugm-3,9.89958,P,ugm-3,44.05508,P,ugm-3,3.255,P,ugm-3 (Ref.eq)
05-01-2024,14:00,5.125,P,ugm-3 (FIDAS),1.74934,P,ugm-3,7.07243,P,ugm-3,9.75471,P,ugm-3,45.05293,P,ugm-3,3.208,P,ugm-3 (Ref.eq)
05-01-2024,15:00,4.925,P,ugm-3 (FIDAS),1.78114,P,ugm-3,8.42408,P,ugm-3,11.15513,P,ugm-3,43.05723,P,ugm-3,2.995,P,ugm-3 (Ref.eq)
05-01-2024,16:00,7.400,P,ugm-3 (FIDAS),1.36766,P,ugm-3,13.50082,P,ugm-3,15.59787,P,ugm-3,39.66454,P,ugm-3,3.821,P,ugm-3 (Ref.eq)
05-01-2024,17:00,8.925,P,ugm-3 (FIDAS),1.39947,P,ugm-3,22.57898,P,ugm-3,24.72480,P,ugm-3,30.63400,P,ugm-3,5.165,P,ugm-3 (Ref.eq)
05-01-2024,18:00,6.825,P,ugm-3 (FIDAS),1.08141,P,ugm-3,17.22350,P,ugm-3,18.88163,P,ugm-3,33.32819,P,ugm-3,4.811,P,ugm-3 (Ref.eq)
05-01-2024,19:00,7.725,P,ugm-3 (FIDAS),1.04960,P,ugm-3,17.32056,P,ugm-3,18.92993,P,ugm-3,31.18281,P,ugm-3,5.425,P,ugm-3 (Ref.eq)
05-01-2024,20:00,7.825,P,ugm-3 (FIDAS),0.92238,P,ugm-3,13.79725,P,ugm-3,15.21155,P,ugm-3,36.72088,P,ugm-3,5.613,P,ugm-3 (Ref.eq)
05-01-2024,21:00,6.925,P,ugm-3 (FIDAS),0.82696,P,ugm-3,12.59142,P,ugm-3,13.85941,P,ugm-3,37.96819,P,ugm-3,5.401,P,ugm-3 (Ref.eq)
05-01-2024,22:00,8.375,P,ugm-3 (FIDAS),0.92238,P,ugm-3,13.16948,P,ugm-3,14.58377,P,ugm-3,33.77722,P,ugm-3,6.509,P,ugm-3 (Ref.eq)
05-01-2024,23:00,8.525,P,ugm-3 (FIDAS),1.04960,P,ugm-3,16.11329,P,ugm-3,17.72266,P,ugm-3,28.43873,P,ugm-3,6.769,P,ugm-3 (Ref.eq)
05-01-2024,24:00,7.225,P,ugm-3 (FIDAS),0.98599,P,ugm-3,12.58903,P,ugm-3,14.10086,P,ugm-3,32.13077,P,ugm-3,5.991,P,ugm-3 (Ref.eq)
06-01-2024,01:00,8.350,P,ugm-3 (FIDAS),0.59372,P,ugm-3,11.58082,P,ugm-3,12.49117,P,ugm-3,30.13507,P,ugm-3,6.392,P,ugm-3 (Ref.eq)
06-01-2024,02:00,8.900,P,ugm-3 (FIDAS),0.93298,P,ugm-3,9.96604,P,ugm-3,11.39659,P,ugm-3,26.21019,P,ugm-3,7.642,P,ugm-3 (Ref.eq)
06-01-2024,03:00,9.325,P,ugm-3 (FIDAS),0.69974,P,ugm-3,9.69590,P,ugm-3,10.76881,P,ugm-3,27.79012,P,ugm-3,7.901,P,ugm-3 (Ref.eq)
06-01-2024,04:00,12.600,P,ugm-3 (FIDAS),0.73154,P,ugm-3,12.35140,P,ugm-3,13.47308,P,ugm-3,22.95055,P,ugm-3,10.684,P,ugm-3 (Ref.eq)
06-01-2024,05:00,11.475,P,ugm-3 (FIDAS),0.92238,P,ugm-3,12.54170,P,ugm-3,13.95599,P,ugm-3,22.00259,P,ugm-3,9.811,P,ugm-3 (Ref.eq)
06-01-2024,06:00,11.475,P,ugm-3 (FIDAS),0.73154,P,ugm-3,12.30311,P,ugm-3,13.42479,P,ugm-3,22.15227,P,ugm-3,9.481,P,ugm-3 (Ref.eq)
06-01-2024,07:00,7.775,P,ugm-3 (FIDAS),0.79515,P,ugm-3,9.50130,P,ugm-3,10.72052,P,ugm-3,28.68819,P,ugm-3,6.203,P,ugm-3 (Ref.eq)
06-01-2024,08:00,7.200,P,ugm-3 (FIDAS),0.98599,P,ugm-3,11.67151,P,ugm-3,13.18334,P,ugm-3,26.94195,P,ugm-3,5.401,P,ugm-3 (Ref.eq)
06-01-2024,09:00,5.850,P,ugm-3 (FIDAS),1.08141,P,ugm-3,9.44871,P,ugm-3,11.10684,P,ugm-3,33.67744,P,ugm-3,4.104,P,ugm-3 (Ref.eq)
06-01-2024,10:00,4.050,P,ugm-3 (FIDAS),1.01780,P,ugm-3,6.84197,P,ugm-3,8.40257,P,ugm-3,40.16346,P,ugm-3,2.618,P,ugm-3 (Ref.eq)
06-01-2024,11:00,2.000,P,ugm-3 (FIDAS),0.79515,P,ugm-3,4.91369,P,ugm-3,6.13291,P,ugm-3,50.74067,P,ugm-3,1.250,P,ugm-3 (Ref.eq)
06-01-2024,12:00,1.825,P,ugm-3 (FIDAS),1.01780,P,ugm-3,3.84795,P,ugm-3,5.40855,P,ugm-3,53.18541,P,ugm-3,1.061,P,ugm-3 (Ref.eq)
06-01-2024,13:00,2.550,P,ugm-3 (FIDAS),1.01780,P,ugm-3,4.86205,P,ugm-3,6.42265,P,ugm-3,52.23745,P,ugm-3,1.439,P,ugm-3 (Ref.eq)
06-01-2024,14:00,3.275,P,ugm-3 (FIDAS),0.79515,P,ugm-3,5.73463,P,ugm-3,6.95385,P,ugm-3,50.24175,P,ugm-3,2.170,P,ugm-3 (Ref.eq)
06-01-2024,15:00,3.525,P,ugm-3 (FIDAS),1.04960,P,ugm-3,7.08294,P,ugm-3,8.69231,P,ugm-3,47.79702,P,ugm-3,2.500,P,ugm-3 (Ref.eq)
06-01-2024,16:00,4.025,P,ugm-3 (FIDAS),1.08141,P,ugm-3,8.43460,P,ugm-3,10.09274,P,ugm-3,45.80132,P,ugm-3,2.877,P,ugm-3 (Ref.eq)
06-01-2024,17:00,4.725,P,ugm-3 (FIDAS),0.79515,P,ugm-3,9.30814,P,ugm-3,10.52736,P,ugm-3,45.15271,P,ugm-3,3.467,P,ugm-3 (Ref.eq)
06-01-2024,18:00,3.500,P,ugm-3 (FIDAS),0.63612,P,ugm-3,8.63446,P,ugm-3,9.60983,P,ugm-3,47.54755,P,ugm-3,2.736,P,ugm-3 (Ref.eq)
06-01-2024,19:00,3.625,P,ugm-3 (FIDAS),0.60432,P,ugm-3,6.99306,P,ugm-3,7.91966,P,ugm-3,48.29594,P,ugm-3,2.854,P,ugm-3 (Ref.eq)
06-01-2024,20:00,3.375,P,ugm-3 (FIDAS),0.69974,P,ugm-3,6.46043,P,ugm-3,7.53334,P,ugm-3,49.94239,P,ugm-3,2.712,P,ugm-3 (Ref.eq)
06-01-2024,21:00,3.850,P,ugm-3 (FIDAS),0.66793,P,ugm-3,6.36432,P,ugm-3,7.38847,P,ugm-3,45.65164,P,ugm-3,3.160,P,ugm-3 (Ref.eq)
06-01-2024,22:00,5.025,P,ugm-3 (FIDAS),0.54071,P,ugm-3,6.31794,P,ugm-3,7.14701,P,ugm-3,46.99874,P,ugm-3,4.009,P,ugm-3 (Ref.eq)
06-01-2024,23:00,3.775,P,ugm-3 (FIDAS),0.69974,P,ugm-3,5.49461,P,ugm-3,6.56753,P,ugm-3,50.04218,P,ugm-3,3.160,P,ugm-3 (Ref.eq)
06-01-2024,24:00,3.900,P,ugm-3 (FIDAS),0.44529,P,ugm-3,3.61510,P,ugm-3,4.29787,P,ugm-3,53.98369,P,ugm-3,2.807,P,ugm-3 (Ref.eq)
07-01-2024,01:00,4.925,P,ugm-3 (FIDAS),0.38167,P,ugm-3,2.69854,P,ugm-3,3.28376,P,ugm-3,57.27659,P,ugm-3,3.019,P,ugm-3 (Ref.eq)
07-01-2024,02:00,6.025,P,ugm-3 (FIDAS),0.50890,P,ugm-3,2.56785,P,ugm-3,3.34815,P,ugm-3,59.00620,P,ugm-3,3.349,P,ugm-3 (Ref.eq)
07-01-2024,03:00,6.225,P,ugm-3 (FIDAS),0.57251,P,ugm-3,3.17858,P,ugm-3,4.05641,P,ugm-3,58.02498,P,ugm-3,3.467,P,ugm-3 (Ref.eq)
07-01-2024,04:00,5.875,P,ugm-3 (FIDAS),0.34987,P,ugm-3,3.13363,P,ugm-3,3.67009,P,ugm-3,61.21810,P,ugm-3,3.255,P,ugm-3 (Ref.eq)
07-01-2024,05:00,5.350,P,ugm-3 (FIDAS),0.60432,P,ugm-3,2.21228,P,ugm-3,3.13889,P,ugm-3,64.96004,P,ugm-3,2.877,P,ugm-3 (Ref.eq)
07-01-2024,06:00,5.925,P,ugm-3 (FIDAS),0.50890,P,ugm-3,1.92398,P,ugm-3,2.70428,P,ugm-3,64.86025,P,ugm-3,2.783,P,ugm-3 (Ref.eq)
07-01-2024,07:00,5.700,P,ugm-3 (FIDAS),0.50890,P,ugm-3,3.08295,P,ugm-3,3.86325,P,ugm-3,63.56305,P,ugm-3,2.830,P,ugm-3 (Ref.eq)
07-01-2024,08:00,5.350,P,ugm-3 (FIDAS),0.54071,P,ugm-3,3.75854,P,ugm-3,4.58761,P,ugm-3,62.71487,P,ugm-3,2.571,P,ugm-3 (Ref.eq)
07-01-2024,09:00,4.825,P,ugm-3 (FIDAS),0.57251,P,ugm-3,4.33755,P,ugm-3,5.21539,P,ugm-3,61.66713,P,ugm-3,2.500,P,ugm-3 (Ref.eq)
07-01-2024,10:00,5.300,P,ugm-3 (FIDAS),0.66793,P,ugm-3,3.51518,P,ugm-3,4.53932,P,ugm-3,61.81681,P,ugm-3,2.524,P,ugm-3 (Ref.eq)
07-01-2024,11:00,5.100,P,ugm-3 (FIDAS),1.27225,P,ugm-3,4.47190,P,ugm-3,6.42265,P,ugm-3,61.41767,P,ugm-3,2.689,P,ugm-3 (Ref.eq)
07-01-2024,12:00,6.500,P,ugm-3 (FIDAS),1.11322,P,ugm-3,3.89481,P,ugm-3,5.60171,P,ugm-3,64.56090,P,ugm-3,3.278,P,ugm-3 (Ref.eq)
07-01-2024,13:00,7.150,P,ugm-3 (FIDAS),0.92238,P,ugm-3,3.75280,P,ugm-3,5.16710,P,ugm-3,68.60219,P,ugm-3,3.561,P,ugm-3 (Ref.eq)
07-01-2024,14:00,7.850,P,ugm-3 (FIDAS),0.92238,P,ugm-3,4.52545,P,ugm-3,5.93975,P,ugm-3,69.35058,P,ugm-3,4.033,P,ugm-3 (Ref.eq)
07-01-2024,15:00,7.600,P,ugm-3 (FIDAS),0.92238,P,ugm-3,4.96007,P,ugm-3,6.37436,P,ugm-3,68.35273,P,ugm-3,4.151,P,ugm-3 (Ref.eq)
07-01-2024,16:00,7.450,P,ugm-3 (FIDAS),0.76335,P,ugm-3,5.25220,P,ugm-3,6.42265,P,ugm-3,68.25294,P,ugm-3,4.363,P,ugm-3 (Ref.eq)
07-01-2024,17:00,6.775,P,ugm-3 (FIDAS),0.57251,P,ugm-3,4.67558,P,ugm-3,5.55342,P,ugm-3,66.25724,P,ugm-3,4.269,P,ugm-3 (Ref.eq)
07-01-2024,18:00,7.400,P,ugm-3 (FIDAS),0.47709,P,ugm-3,4.09753,P,ugm-3,4.82906,P,ugm-3,64.06197,P,ugm-3,4.481,P,ugm-3 (Ref.eq)
07-01-2024,19:00,9.275,P,ugm-3 (FIDAS),0.66793,P,ugm-3,3.66005,P,ugm-3,4.68419,P,ugm-3,61.91659,P,ugm-3,5.094,P,ugm-3 (Ref.eq)
07-01-2024,20:00,10.775,P,ugm-3 (FIDAS),0.54071,P,ugm-3,2.30982,P,ugm-3,3.13889,P,ugm-3,62.51530,P,ugm-3,5.873,P,ugm-3 (Ref.eq)
07-01-2024,21:00,8.300,P,ugm-3 (FIDAS),0.63612,P,ugm-3,1.92206,P,ugm-3,2.89744,P,ugm-3,60.46971,P,ugm-3,4.080,P,ugm-3 (Ref.eq)
07-01-2024,22:00,8.050,P,ugm-3 (FIDAS),0.54071,P,ugm-3,2.50298,P,ugm-3,3.33205,P,ugm-3,62.21595,P,ugm-3,3.915,P,ugm-3 (Ref.eq)
07-01-2024,23:00,7.700,P,ugm-3 (FIDAS),0.54071,P,ugm-3,2.79273,P,ugm-3,3.62180,P,ugm-3,63.11401,P,ugm-3,4.198,P,ugm-3 (Ref.eq)
07-01-2024,24:00,7.700,P,ugm-3 (FIDAS),0.60432,P,ugm-3,2.50203,P,ugm-3,3.42863,P,ugm-3,65.60864,P,ugm-3,3.915,P,ugm-3 (Ref.eq)
08-01-2024,01:00,6.925,P,ugm-3 (FIDAS),0.50890,P,ugm-3,2.24591,P,ugm-3,3.02621,P,ugm-3,65.65853,P,ugm-3,3.467,P,ugm-3 (Ref.eq)
08-01-2024,02:00,6.550,P,ugm-3 (FIDAS),0.50890,P,ugm-3,1.66642,P,ugm-3,2.44672,P,ugm-3,67.12204,P,ugm-3,3.137,P,ugm-3 (Ref.eq)
08-01-2024,03:00,5.800,P,ugm-3 (FIDAS),0.44529,P,ugm-3,1.68348,P,ugm-3,2.36624,P,ugm-3,65.80821,P,ugm-3,2.736,P,ugm-3 (Ref.eq)
08-01-2024,04:00,5.800,P,ugm-3 (FIDAS),0.41348,P,ugm-3,1.53908,P,ugm-3,2.17308,P,ugm-3,67.00563,P,ugm-3,2.476,P,ugm-3 (Ref.eq)
08-01-2024,05:00,5.825,P,ugm-3 (FIDAS),0.54071,P,ugm-3,1.39230,P,ugm-3,2.22137,P,ugm-3,67.45466,P,ugm-3,2.524,P,ugm-3 (Ref.eq)
08-01-2024,06:00,5.400,P,ugm-3 (FIDAS),0.44529,P,ugm-3,4.00143,P,ugm-3,4.68419,P,ugm-3,63.41337,P,ugm-3,2.547,P,ugm-3 (Ref.eq)
08-01-2024,07:00,5.325,P,ugm-3 (FIDAS),0.44529,P,ugm-3,4.67750,P,ugm-3,5.36026,P,ugm-3,61.66713,P,ugm-3,2.618,P,ugm-3 (Ref.eq)
08-01-2024,08:00,5.700,P,ugm-3 (FIDAS),0.57251,P,ugm-3,6.41405,P,ugm-3,7.29188,P,ugm-3,60.51960,P,ugm-3,2.783,P,ugm-3 (Ref.eq)
08-01-2024,09:00,5.150,P,ugm-3 (FIDAS),0.76335,P,ugm-3,4.96246,P,ugm-3,6.13291,P,ugm-3,61.86670,P,ugm-3,2.877,P,ugm-3 (Ref.eq)
08-01-2024,10:00,7.900,P,ugm-3 (FIDAS),0.98599,P,ugm-3,5.39373,P,ugm-3,6.90556,P,ugm-3,58.47401,P,ugm-3,3.868,P,ugm-3 (Ref.eq)
08-01-2024,11:00,10.075,P,ugm-3 (FIDAS),1.20863,P,ugm-3,7.12884,P,ugm-3,8.98206,P,ugm-3,55.13121,P,ugm-3,4.363,P,ugm-3 (Ref.eq)
08-01-2024,12:00,9.425,P,ugm-3 (FIDAS),0.92238,P,ugm-3,7.18144,P,ugm-3,8.59573,P,ugm-3,47.94669,P,ugm-3,4.245,P,ugm-3 (Ref.eq)
08-01-2024,13:00,6.750,P,ugm-3 (FIDAS),1.11322,P,ugm-3,4.08797,P,ugm-3,5.79488,P,ugm-3,48.84476,P,ugm-3,3.467,P,ugm-3 (Ref.eq)
08-01-2024,14:00,6.775,P,ugm-3 (FIDAS),1.24044,P,ugm-3,5.00358,P,ugm-3,6.90556,P,ugm-3,51.38928,P,ugm-3,3.703,P,ugm-3 (Ref.eq)
08-01-2024,15:00,6.075,P,ugm-3 (FIDAS),0.92238,P,ugm-3,4.52545,P,ugm-3,5.93975,P,ugm-3,52.48691,P,ugm-3,3.679,P,ugm-3 (Ref.eq)
08-01-2024,16:00,7.675,P,ugm-3 (FIDAS),0.82696,P,ugm-3,5.34783,P,ugm-3,6.61582,P,ugm-3,52.93594,P,ugm-3,5.401,P,ugm-3 (Ref.eq)